Volver al catálogo

INTELSAT 33E DEB

ActivoGEO
NORAD 64397·DEBRIS· XX

Lanzado Aug 24, 2016 desde Guiana Space Centre

Loading…

TLE

ActualizadoSource: Space-Track

Época: Sep 13, 2026, 15:10 UTC

1 64397U 16053AB  26256.63241247  .00000095  00000-0  00000-0 0  9998
2 64397   1.7651  79.6929 0052219  95.9456 265.4725  0.99470213  6787

Sigue INTELSAT 33E DEB en tiempo real con AllMySat

Download on the App Store